Home > Weather > Burbank > Past weeks

Flag for USA Weather for the Past 2 Weeks in Burbank, California, USA

Now
59 °F

Clear.


Feels Like: 59 °F
Forecast: 55 / 81 °F
Wind: No wind

Location: Bob Hope Airport

Current Time: May 3, 2016 at 6:03:16 AM

Latest Report: May 3, 2016 at 4:53 AM


Visibility: 10 mi

Pressure: 29.91 "Hg

Humidity: 69%

Dew Point: 49 °F

Location of BurbankLocation

Historic Weather in Burbank — Graph

°F

Burbank Temperature Yesterday

Maximum temperature yesterday: 81 °F (at 2:53 PM)
Minimum temperature yesterday: 55 °F (at 5:53 AM)
Average temperature yesterday: 66 °F

High & Low Weather Summary for the Past Weeks

 TemperatureHumidityPressure
High88 °F (Apr 18, 2:53 PM)84% (May 2, 4:53 AM)30.04 "Hg (May 2, 4:53 AM)
Low47 °F (Apr 26, 5:53 AM)7% (Apr 19, 4:53 PM)29.70 "Hg (Apr 27, 7:53 PM)
Average65 °F47%29.88 "Hg
* Reported Apr 18 3:53 AM — May 3 3:53 AM, Burbank, Weather by CustomWeather, © 2016

Note: Actual official high and low records may vary slightly from our data, if they occured in-between our weather recording intervals... More about our weather records

Advertising

Burbank Weather History for the Previous 24 Hours

Scroll right to see more
 ConditionsComfort  
Time TempWeatherWind HumidityBarometerVisibility
3:53 AM
Tue, May 3
60 °FClear.No wind69%29.90 "Hg10 mi
2:53 AM60 °FClear.No wind72%29.92 "Hg10 mi
1:53 AM60 °FClear.3 mph72%29.93 "Hg10 mi
12:53 AM60 °FClear.6 mph75%29.95 "Hg10 mi
11:53 PM
Mon, May 2
60 °FClear.7 mph75%29.95 "Hg10 mi
10:53 PM62 °FClear.10 mph73%29.95 "Hg10 mi
9:53 PM66 °FClear.7 mph63%29.94 "Hg10 mi
8:53 PM68 °FClear.No wind59%29.92 "Hg10 mi
7:53 PM72 °FSunny.7 mph44%29.91 "Hg10 mi
6:53 PM74 °FSunny.5 mph38%29.90 "Hg10 mi
5:53 PM75 °FSunny.8 mph39%29.90 "Hg10 mi
4:53 PM78 °FSunny.9 mph35%29.89 "Hg10 mi
3:53 PM81 °FSunny.10 mph24%29.90 "Hg10 mi
2:53 PM81 °FSunny.6 mph29%29.91 "Hg10 mi
1:53 PM80 °FSunny.7 mph30%29.93 "Hg10 mi
12:53 PM76 °FSunny.6 mph43%29.95 "Hg10 mi
11:53 AM73 °FSunny.5 mph48%29.98 "Hg10 mi
10:53 AM69 °FSunny.5 mph55%29.99 "Hg8 mi
9:53 AM64 °FSunny.No wind65%30.00 "Hg8 mi
8:53 AM60 °FSunny.3 mph75%30.00 "Hg8 mi
7:53 AM57 °FSunny.No wind81%30.00 "Hg10 mi
6:53 AM56 °FClear.3 mph77%29.98 "Hg9 mi
Weather by CustomWeather, © 2016

See weather overviewHow to use our weather pages